User: anonymous   Login
Location: Glencliff
(36.1226°N, 86.7183°W)
Time: 05:54:09
(UTC+00:00)
Language:

Cosmos 2285 Rocket - Orbit

View from above orbital plane
View from above orbital plane
View from above satellite
View from above satellite

Ground track
Ground track

The orbit data is extracted from the following two-line orbital elements,

1 23190U 94045B   19288.91179124 -.00000082 +00000-0 -63631-4 0  9994
2 23190 074.0260 132.8162 0020058 272.4802 087.4021 13.74076971263827
Epoch (UTC): 15 October 2019 21:52:58
Eccentricity: 0.0020058
inclination: 74.0260°
perigee height: 970 km
apogee height: 1000 km
right ascension of ascending node: 132.8162°
argument of perigee: 272.4802°
revolutions per day: 13.74076971
mean anomaly at epoch: 87.4021°
orbit number at epoch: 26382

The dashed part of the orbit path shows where the satellite is in the earth's shadow,  

DLR